Time,TemperatureF,DewpointF,PressureIn,WindDirection,WindDirectionDegrees,WindSpeedMPH,WindSpeedGustMPH,Humidity,HourlyPrecipIn,Conditions,Clouds,dailyrainin,SoftwareType,DateUTC
2013-06-24 00:22:00,71.0,69.0,-100.00,South,185,6.0,9.0,95,0.00,,,-99.99,,2013-06-24 05:22:00,
2013-06-24 00:35:00,70.0,69.0,-100.00,SSW,195,7.0,12.0,95,0.00,,,-99.99,,2013-06-24 05:35:00,
2013-06-24 00:46:00,70.0,69.0,-100.00,SSW,195,4.0,7.0,95,0.00,,,-99.99,,2013-06-24 05:46:00,
2013-06-24 01:13:00,70.0,69.0,-100.00,SSW,195,5.0,8.0,95,0.00,,,-99.99,,2013-06-24 06:13:00,
2013-06-24 01:36:00,71.0,69.0,-100.00,SSW,210,4.0,6.0,95,0.00,,,-99.99,,2013-06-24 06:36:00,
2013-06-24 01:44:00,71.0,70.0,-100.00,South,175,2.0,7.0,95,0.00,,,-99.99,,2013-06-24 06:44:00,
2013-06-24 01:52:00,71.0,70.0,-100.00,SW,220,6.0,9.0,95,0.00,,,-99.99,,2013-06-24 06:52:00,
2013-06-24 02:14:00,71.0,70.0,-100.00,SW,225,7.0,11.0,95,0.00,,,-99.99,,2013-06-24 07:14:00,
2013-06-24 02:46:00,72.0,70.0,-100.00,SW,225,8.0,14.0,95,0.00,,,-99.99,,2013-06-24 07:46:00,
2013-06-24 02:54:00,72.0,71.0,-100.00,SW,220,7.0,15.0,95,0.00,,,-99.99,,2013-06-24 07:54:00,
2013-06-24 03:04:00,72.0,71.0,-100.00,SW,215,6.0,16.0,95,0.00,,,-99.99,,2013-06-24 08:04:00,
2013-06-24 03:14:00,72.0,71.0,-100.00,South,185,2.0,7.0,95,0.00,,,-99.99,,2013-06-24 08:14:00,
2013-06-24 03:35:00,71.0,70.0,-100.00,SE,140,4.0,6.0,95,0.00,,,-99.99,,2013-06-24 08:35:00,
2013-06-24 03:52:00,70.0,69.0,-100.00,ESE,105,4.0,5.0,95,0.00,,,-99.99,,2013-06-24 08:52:00,
2013-06-24 04:15:00,70.0,68.0,-100.00,SE,140,4.0,6.0,95,0.00,,,-99.99,,2013-06-24 09:15:00,
2013-06-24 04:36:00,69.0,68.0,-100.00,South,180,3.0,6.0,95,0.00,,,-99.99,,2013-06-24 09:36:00,
2013-06-24 04:47:00,69.0,68.0,-100.00,South,185,4.0,6.0,95,0.16,,,-99.99,,2013-06-24 09:47:00,
2013-06-24 05:04:00,69.0,67.0,-100.00,South,170,4.0,6.0,95,0.00,,,-99.99,,2013-06-24 10:04:00,
2013-06-24 05:14:00,69.0,68.0,-100.00,South,185,4.0,6.0,95,0.00,,,-99.99,,2013-06-24 10:14:00,
2013-06-24 05:37:00,69.0,68.0,-100.00,South,185,6.0,8.0,95,0.00,,,-99.99,,2013-06-24 10:37:00,
2013-06-24 05:48:00,69.0,68.0,-100.00,SE,125,2.0,7.0,95,0.00,,,-99.99,,2013-06-24 10:48:00,
2013-06-24 05:54:00,69.0,68.0,-100.00,ESE,115,4.0,4.0,95,0.00,,,-99.99,,2013-06-24 10:54:00,
2013-06-24 06:03:00,69.0,68.0,-100.00,SSE,155,2.0,4.0,95,0.00,,,-99.99,,2013-06-24 11:03:00,
2013-06-24 06:14:00,69.0,68.0,-100.00,North,350,4.0,6.0,95,0.00,,,-99.99,,2013-06-24 11:14:00,
2013-06-24 06:34:00,69.0,68.0,-100.00,NNW,330,2.0,6.0,95,0.00,,,-99.99,,2013-06-24 11:34:00,
2013-06-24 06:45:00,70.0,68.0,-100.00,ENE,65,1.0,3.0,95,0.00,,,-99.99,,2013-06-24 11:45:00,
2013-06-24 07:05:00,70.0,69.0,-100.00,SE,130,2.0,4.0,95,0.00,,,-99.99,,2013-06-24 12:05:00,
2013-06-24 07:16:00,71.0,70.0,-100.00,SE,135,3.0,4.0,95,0.00,,,-99.99,,2013-06-24 12:16:00,
2013-06-24 07:23:00,71.0,70.0,-100.00,SE,130,4.0,6.0,95,0.00,,,-99.99,,2013-06-24 12:23:00,
2013-06-24 07:36:00,71.0,70.0,-100.00,SE,125,4.0,7.0,95,0.00,,,-99.99,,2013-06-24 12:36:00,
2013-06-24 07:47:00,72.0,70.0,-100.00,SSE,155,6.0,8.0,95,0.00,,,-99.99,,2013-06-24 12:47:00,
2013-06-24 07:53:00,71.0,70.0,-100.00,SE,130,2.0,9.0,95,0.00,,,-99.99,,2013-06-24 12:53:00,
2013-06-24 08:23:00,73.0,72.0,-100.00,South,185,6.0,11.0,95,0.00,,,-99.99,,2013-06-24 13:23:00,
2013-06-24 08:36:00,73.0,72.0,-100.00,South,185,6.0,11.0,95,0.00,,,-99.99,,2013-06-24 13:36:00,
2013-06-24 08:43:00,75.0,74.0,-100.00,South,180,8.0,14.0,95,0.00,,,-99.99,,2013-06-24 13:43:00,
2013-06-24 09:02:00,76.0,74.0,-100.00,SSW,195,8.0,13.0,95,0.00,,,-99.99,,2013-06-24 14:02:00,
2013-06-24 09:23:00,75.0,73.0,-100.00,South,185,7.0,12.0,95,0.00,,,-99.99,,2013-06-24 14:23:00,
2013-06-24 09:36:00,75.0,73.0,-100.00,South,185,7.0,12.0,95,0.00,,,-99.99,,2013-06-24 14:36:00,
2013-06-24 09:45:00,76.0,74.0,-100.00,South,175,7.0,12.0,95,0.00,,,-99.99,,2013-06-24 14:45:00,
2013-06-24 12:46:00,84.0,80.0,-100.00,SSW,200,7.0,14.0,86,0.00,,,-99.99,,2013-06-24 17:46:00,
2013-06-24 13:02:00,82.0,78.0,-100.00,South,185,9.0,16.0,89,0.00,,,-99.99,,2013-06-24 18:02:00,
2013-06-24 13:25:00,81.0,79.0,-100.00,South,185,8.0,14.0,94,0.00,,,-99.99,,2013-06-24 18:25:00,
2013-06-24 13:36:00,81.0,79.0,-100.00,South,185,8.0,14.0,94,0.00,,,-99.99,,2013-06-24 18:36:00,
2013-06-24 13:46:00,78.0,77.0,-100.00,NNW,345,6.0,12.0,95,0.00,,,-99.99,,2013-06-24 18:46:00,
2013-06-24 14:36:00,67.0,66.0,-100.00,WNW,285,7.0,13.0,95,0.10,,,-99.99,,2013-06-24 19:36:00,
2013-06-24 14:45:00,68.0,67.0,-100.00,WNW,290,5.0,12.0,95,0.17,,,-99.99,,2013-06-24 19:45:00,
2013-06-24 14:54:00,68.0,67.0,-100.00,SW,220,1.0,7.0,95,0.13,,,-99.99,,2013-06-24 19:54:00,
2013-06-24 15:05:00,70.0,69.0,-100.00,WNW,295,8.0,16.0,95,0.13,,,-99.99,,2013-06-24 20:05:00,
2013-06-24 15:12:00,69.0,68.0,-100.00,West,265,2.0,12.0,95,0.17,,,-99.99,,2013-06-24 20:12:00,
2013-06-24 15:24:00,70.0,69.0,-100.00,ESE,110,2.0,6.0,95,0.08,,,-99.99,,2013-06-24 20:24:00,
2013-06-24 15:34:00,70.0,69.0,-100.00,ESE,110,2.0,6.0,95,0.08,,,-99.99,,2013-06-24 20:34:00,
2013-06-24 15:45:00,69.0,68.0,-100.00,SE,140,7.0,13.0,95,0.06,,,-99.99,,2013-06-24 20:45:00,
2013-06-24 15:54:00,71.0,69.0,-100.00,SE,145,4.0,18.0,95,0.10,,,-99.99,,2013-06-24 20:54:00,
2013-06-24 16:04:00,71.0,70.0,-100.00,ENE,65,7.0,11.0,95,0.03,,,-99.99,,2013-06-24 21:04:00,
2013-06-24 16:13:00,73.0,69.0,-100.00,NNE,25,2.0,14.0,86,0.07,,,-99.99,,2013-06-24 21:13:00,
2013-06-24 16:37:00,73.0,70.0,-100.00,NNE,20,2.0,10.0,90,0.00,,,-99.99,,2013-06-24 21:37:00,
2013-06-24 16:53:00,72.0,71.0,-100.00,ESE,120,3.0,8.0,95,0.00,,,-99.99,,2013-06-24 21:53:00,
2013-06-24 18:13:00,74.0,73.0,-100.00,SE,130,6.0,9.0,95,0.00,,,-99.99,,2013-06-24 23:13:00,
2013-06-24 18:26:00,74.0,72.0,-100.00,SE,135,5.0,10.0,95,0.00,,,-99.99,,2013-06-24 23:26:00,
2013-06-24 18:34:00,74.0,72.0,-100.00,SE,135,5.0,10.0,95,0.00,,,-99.99,,2013-06-24 23:34:00,
2013-06-24 18:45:00,73.0,71.0,-100.00,SSE,150,7.0,12.0,95,0.00,,,-99.99,,2013-06-24 23:45:00,
2013-06-24 18:53:00,73.0,72.0,-100.00,SSE,155,4.0,8.0,95,0.00,,,-99.99,,2013-06-24 23:53:00,
2013-06-24 19:04:00,73.0,72.0,-100.00,SE,135,2.0,8.0,95,0.00,,,-99.99,,2013-06-25 00:04:00,
2013-06-24 19:12:00,73.0,71.0,-100.00,SE,130,7.0,12.0,95,0.00,,,-99.99,,2013-06-25 00:12:00,
2013-06-24 19:23:00,72.0,71.0,-100.00,SE,140,9.0,12.0,95,0.00,,,-99.99,,2013-06-25 00:23:00,
2013-06-24 19:34:00,72.0,71.0,-100.00,SE,140,9.0,12.0,95,0.00,,,-99.99,,2013-06-25 00:34:00,
2013-06-24 19:45:00,71.0,70.0,-100.00,SE,140,7.0,16.0,95,0.00,,,-99.99,,2013-06-25 00:45:00,
2013-06-24 19:54:00,71.0,69.0,-100.00,SE,145,9.0,14.0,95,0.00,,,-99.99,,2013-06-25 00:54:00,
2013-06-24 20:03:00,71.0,69.0,-100.00,SE,140,4.0,9.0,95,0.00,,,-99.99,,2013-06-25 01:03:00,
2013-06-24 20:36:00,70.0,69.0,-100.00,SE,125,4.0,9.0,95,0.00,,,-99.99,,2013-06-25 01:36:00,
2013-06-24 20:44:00,70.0,69.0,-100.00,ESE,115,7.0,12.0,95,0.00,,,-99.99,,2013-06-25 01:44:00,
2013-06-24 21:16:00,70.0,68.0,-100.00,SE,135,4.0,9.0,95,0.00,,,-99.99,,2013-06-25 02:16:00,
2013-06-24 21:25:00,69.0,68.0,-100.00,South,175,4.0,8.0,95,0.00,,,-99.99,,2013-06-25 02:25:00,
2013-06-24 21:36:00,69.0,68.0,-100.00,South,175,4.0,8.0,95,0.00,,,-99.99,,2013-06-25 02:36:00,
2013-06-24 21:45:00,69.0,68.0,-100.00,South,175,2.0,6.0,95,0.00,,,-99.99,,2013-06-25 02:45:00,
2013-06-24 22:59:00,69.0,67.0,-100.00,SSE,160,1.0,3.0,95,0.00,,,-99.99,,2013-06-25 03:59:00,
2013-06-24 23:34:00,68.0,67.0,-100.00,South,185,4.0,7.0,95,0.00,,,-99.99,,2013-06-25 04:34:00,
2013-06-24 23:43:00,68.0,67.0,-100.00,South,175,3.0,5.0,95,0.00,,,-99.99,,2013-06-25 04:43:00,